Location: North Evanston
(42.0634°N, 87.6976°W)
Time: 14:27:18
(UTC+00:00)

Vanguard 2 Rocket - Pass Details

Date: 10 May 2026
Orbit: 553 x 3286 km, 32.9° (Epoch: 6 June)

Event Time Altitude Azimuth Distance (km) Brightness Sun altitude
Rises 14:13:01 0° 167° (SSE) 5,292 11.1 38.6°
Reaches altitude 10° 14:22:57 10° 128° (SE) 5,225 11.7 40.4°
Maximum altitude 14:23:51 10° 124° (SE) 5,290 11.8 40.6°
Drops below altitude 10° 14:24:46 10° 121° (ESE) 5,367 11.9 40.7°
Sets 14:37:38 0° 85° (E) 7,094 12.2 43.1°
